STARLINK-1057

Last updated on Thu Dec 12 2019 00:02:04 GMT+0000 (Coordinated Universal Time)

1 44762U 19074BB 19344.83334491 -.00029397 00000-0 -20543-3 0 9999 2 44762 53.0093 25.2572 0002193 1.4717 114.0144 15.73228690 4612

Satellite not in orbit